Regional Weather Roundup
Issued by NWS Charleston, SC

Current Version | Previous Version | Graphics & Text | Print | Product List | Glossary On
Versions: 1 2 3 4 5 6 7 8 9 10 11 12 13 14 15 16 17 18 19 20 21 22 23 24 25 26 27 28 29 30 31 32 33 34 35 36 37 38 39 40 41 42 43 44 45 46 47 48 49 50
000
ASUS42 KCHS 251912
RWRCHS

REGIONAL WEATHER ROUNDUP
NATIONAL WEATHER SERVICE CHARLESTON SC
300 PM EDT SAT APR 25 2015

NOTE: "FAIR" INDICATES FEW OR NO CLOUDS BELOW 12,000 FEET WITH NO
SIGNIFICANT WEATHER AND/OR OBSTRUCTIONS TO VISIBILITY.

NOT ALL STATIONS ARE QUALITY CONTROLLED BY THE NATIONAL
WEATHER SERVICE. USE DATA WITH CAUTION...ESPECIALLY
DEWPOINT OBSERVATIONS.

SCZ027-030-031-034>040-042>050-252000-
...SOUTHEAST SOUTH CAROLINA...

CITY           SKY/WX    TMP DP  RH WIND       PRES   REMARKS
N CHARLESTON   CLOUDY    73  65  75 SW16G23   29.76F
WATERFRONT PRK NOT AVBL
MOUNT PLEASANT MOCLDY    72  66  83 MISG      29.77F
PINOPOLIS      NOT AVBL
MONCKS CORNER  CLOUDY    72  64  78 S14       29.75F
SUMMERVILLE    CLOUDY    72  66  83 S10       29.76F
BEAUFORT MCAS  CLOUDY    72  67  84 S12G20    29.76F
BEAUFORT ARPT  CLOUDY    72  68  88 S10G18    29.76F
HILTON HEAD IS CLOUDY    72  72 100 S7        29.79F
WALTERBORO     CLOUDY    73  64  73 S15G24    29.75F
ALLENDALE      CLOUDY    73  66  78 S10       29.72F

...SOUTHERN MIDLANDS AND PEE DEE...

CITY           SKY/WX    TMP DP  RH WIND       PRES   REMARKS
GEORGETOWN     NOT AVBL
KINGSTREE      NOT AVBL
ORANGEBURG     CLOUDY    71  64  78 S10       29.73F
BARNWELL       CLOUDY    73  66  78 S9        29.74F
AIKEN          CLOUDY    68  63  83 SW6       29.75F
MANNING        CLOUDY    68  46  45 S8        29.74F
COLUMBIA       CLOUDY    71  63  75 S10G20    29.71F
SUMTER         CLOUDY    69  63  80 S14G21    29.71F
FLORENCE       LGT RAIN  67  62  84 S9        29.74F
MYRTLE BEACH   CLOUDY    72  59  64 S17       29.81F
N MYRTLE BEACH CLOUDY    67  59  75 S7        29.79F

$$

GAZ063-065-086>088-099>101-113>116-118-119-134>141-150-252000-
...SOUTHEAST GEORGIA...

CITY           SKY/WX    TMP DP  RH WIND       PRES   REMARKS
SAVANNAH ARPT  CLOUDY    76  68  76 S10       29.77F
HUNTER AAF     CLOUDY    75  71  86 SW10      29.75F
FORT STEWART   CLOUDY    75  70  83 S8        29.74F
STATESBORO       N/A     76  69  77 SW9       29.74F
SYLVANIA       CLOUDY    74  69  83 SW5       29.76S
CLAXTON        CLOUDY    75  70  83 SW7       29.76F

...CSRA...CENTRAL AND FAR SOUTHEAST GEORGIA...

CITY           SKY/WX    TMP DP  RH WIND       PRES   REMARKS
THOMSON        PTSUNNY   78  70  76 W6        29.76F
AUGUSTA-BUSH   CLOUDY    75  67  76 SW10      29.71F
AUGUSTA-DANIEL CLOUDY    75  66  73 S6        29.72F
SWAINSBORO     NOT AVBL
VIDALIA        CLOUDY    77  70  78 SW13      29.75F
EASTMAN        MOCLDY    81  73  75 W8        29.77F
HAZLEHURST     FAIR      84  70  62 SW9G17    29.74F
ALMA           MOSUNNY   83  69  62 SW16G25   29.76F
WAYCROSS       MOSUNNY   86  74  68 W15G22    29.78F HX  93
JESUP          MOCLDY    82  73  74 W12G20    29.77F
BAXLEY         FAIR      82  70  65 SW13G21   29.76S
BRUNSWICK      CLOUDY    81  70  69 SW18G26   29.79F
SAINT SIMONS   CLOUDY    77  69  76 SW15G25   29.79F

$$

SCZ027-028-034-036>038-045-046-048>050-GAZ119-141-252000-
...LAKE AND SUPPLEMENTAL COASTAL OBSERVATIONS...

STATION/POSITION TIME  TEMP    WIND        PRES    WAVE   SWELL
                       AIR SEA DIR/SP/G            HT/PER HT/PER/DIR
                 (UTC) (F)     (DEG/KT/KT) (MB)    (FT/S) (FT/S/D)
UPR LAKE MARION  NOT AVBL
WINYAH BAY       NOT AVBL
LAKE MURRAY      1800   66     180/ 12/ 14 1006.4F
ACE BASIN NERRS  NOT AVBL
FORT PULASKI     1800   71 70  160/  6/ 11 1009.4F
SAPELO ISLAND    NOT AVBL

$$

ANZ835-935-AMZ111-154-330-350-352-354-370-450-454-472-252000-
...C-MAN AND BUOY OBSERVATIONS...

STATION/POSITION TIME  TEMP    WIND        PRES    WAVE   SWELL
                       AIR SEA DIR/SP/G            HT/PER HT/PER/DIR
                 (UTC) (F)     (DEG/KT/KT) (MB)    (FT/S) (FT/S/D)
BUOY 41004       1850   71 72  180/ 23/ 29 1006.4F   5/ 5   2/10
BUOY 41008       1850   71 69  180/ 14/ 16 1008.8F   3/ 4   2/190/13
FOLLY BEACH CMAN 1900   69     200/ 15/ 18 1007.7F
CAPERS NEARSHORE 1808   69     190/ 12/ 17 1008.9
FRIPP NEARSHORE  1800   69     160/ 17/ 21 1008.1F


STATION/POSITION TIME  TEMP    WIND        PRES    WAVE   SWELL
                       AIR SEA DIR/SP/G            HT/PER HT/PER/DIR
                 (UTC) (F)     (DEG/KT/KT) (MB)    (FT/S) (FT/S/D)
5E ST. MARYS GA  1821      70                N/A     3/14   2/110/14
FRYING PAN BUOY  1850   72 71  190/ 14/ 17 1009.8F   3/ 4   2/ 90/10
BUOY 41025       1850   65 72  240/  6/  8 1010.2F   3/ 8   2/ 60/ 8
CAPE LOOKOUT NC  1900   61     200/  6/  7 1009.5F
BUOY 41002       1850   68 71  210/ 14/ 19 1014.2F   4/ 9   3/ 20/ 9
BUOY 41010       1820   78 80  190/ 12/ 14 1013.5F
ST AUGUSTINE FL  1900   82 70  240/  9/ 12 1011.3F


$$


USA.gov is the U.S. government's official web portal to all federal, state and local government web resources and services.